Preview of NWS' New Version of Forecast
This preview is not operational and should not be used for support decisions.

Regional Weather Roundup (RWR)

Issued by National Weather Service (NWS)

                            
000
ASUS43 KTOP 192159
RWRKS 

WEATHER ROUNDUP FOR KANSAS
NATIONAL WEATHER SERVICE GOODLAND KS
500 PM CDT SUN MAY 19 2019

NOTE:  "FAIR" INDICATES FEW OR NO CLOUDS BELOW 12,000 FEET WITH NO
SIGNIFICANT WEATHER AND/OR OBSTRUCTIONS TO VISIBILITY.

KSZ001>006-013>018-027>032-041>047-192300-
NORTHWEST KANSAS
  
CITY           SKY/WX    TMP DP  RH WIND       PRES   REMARKS
GOODLAND       SUNNY     64  38  38 E8        29.93F                  
HAYS           SUNNY     64  44  48 N6        29.95F                  
HILL CITY      MOSUNNY   65  40  39 NW5       29.95F                  
RUSSELL        SUNNY     63  43  48 CALM      29.95S                  
$$

KSZ061>065-074>080-084>089-192300-
SOUTHWEST KANSAS
  
CITY           SKY/WX    TMP DP  RH WIND       PRES   REMARKS
DODGE CITY     SUNNY     67  45  45 MISG      29.96F                  
GARDEN CITY    MOSUNNY   64  45  49 E8        29.95F                  
GREAT BEND     MOSUNNY   64  47  53 NW3       29.96F                  
LIBERAL        SUNNY     69  44  40 SE12      29.93F                  
$$

KSZ066>073-081>083-090>101-192300-
SOUTHEAST KANSAS
  
CITY           SKY/WX    TMP DP  RH WIND       PRES   REMARKS
CHANUTE        MOSUNNY   71  51  49 W9        29.96S                  
COFFEYVILLE    SUNNY     74  53  48 W7        29.94F                  
HUTCHINSON     MOSUNNY   67  48  50 W9        29.96F                  
NEWTON         PTSUNNY   65  49  56 NW6       29.97F                  
PARSONS        SUNNY     73  54  51 NW9       29.96F                  
WICHITA INTL   PTSUNNY   70  48  45 NW8       29.96F                  
WICHITA JABRA  MOSUNNY   68  49  50 W7        29.96F                  
WICHITA MCCONL MOSUNNY   68  49  49 W6        29.96F                  
WINFIELD       CLOUDY    71  50  47 VRB5      29.97F                  
$$

KSZ007>012-019>026-033>040-048>060-102>105-192300-
NORTHEAST KANSAS
  
CITY           SKY/WX    TMP DP  RH WIND       PRES   REMARKS
CONCORDIA      SUNNY     66  43  43 NW13      29.93F                  
EMPORIA        CLOUDY    65  50  58 NW12      29.96S                  
LAWRENCE       MOSUNNY   68  49  50 W14G24    29.92R                  
MANHATTAN      SUNNY     67  44  43 VRB6G20   29.93F                  
OLATHE IND     MOSUNNY   66  47  50 W16       29.93R                  
OLATHE EXE     PTSUNNY   64  47  53 W13G22    29.92R                  
SALINA         CLOUDY    66  45  46 W7        29.95F                  
TOPEKA BILLARD MOSUNNY   68  47  46 W14G22    29.92F                  
TOPEKA FORBES  SUNNY     66  46  48 W15       29.93S                  
$$